Change the Weather History Date:

Wednesday, May 14, 2014

  Actual Average (KHRO) Record (KHRO)
Temperature  
Mean Temperature 46 °F 65 °F  
Max Temperature 50 °F 76 °F 96 °F (1911)
Min Temperature 41 °F 55 °F 34 °F (1910)
Degree Days  
Heating Degree Days 20 3  
Month to date heating degree days 49  
Since 1 July heating degree days 3970  
Cooling Degree Days 0 3  
Month to date cooling degree days 32  
Year to date cooling degree days 69  
Moisture  
Dew Point 44 °F    
Average Humidity 92    
Maximum Humidity 100    
Minimum Humidity 81    
Precipitation  
Precipitation 0.00 in 0.16 in 2.64 in (1956)
Month to date precipitation 2.30  
Year to date precipitation 15.61  
Snow  
Snow 0.00 in 0.00 in - ()
Month to date snowfall 0.0  
Since 1 July snowfall 11.5  
Snow Depth -    
Sea Level Pressure  
Sea Level Pressure 30.19 in    
Wind  
Wind Speed 3 mph (NNW)    
Max Wind Speed 14 mph    
Max Gust Speed 23 mph    
Visibility 10 miles    
Events Rain    
T = Trace of Precipitation, MM = Missing Value Source: NWS Daily Summary

Daily Weather History Graph

Daily Weather History Graph

Search for Another Location

Airport or City:

Trip Planner

Search our weather history database for the weather conditions in past years. The results will help you decide how hot, cold, wet, or windy it might be!

Date:

Astronomy

May. 14, 2014 Rise Set
Actual Time 6:06 AM CDT 8:12 PM CDT
Civil Twilight 5:37 AM CDT 8:40 PM CDT
Nautical Twilight 5:02 AM CDT 9:16 PM CDT
Astronomical Twilight 4:25 AM CDT 9:54 PM CDT
Moon 8:18 PM CDT (5/14) 6:04 AM CDT (5/14)
Length of Visible Light 15h 02m
Length of Day
14h 05m
Full, 100% of the Moon is Illuminated
May 14
Full
May 14
Full
May 21
Last Quarter
May 28
New
Jun 5
First Quarter

Hourly Weather History & Observations

Time (CDT) Temp. Windchill Dew Point Humidity Pressure Visibility Wind Dir Wind Speed Gust Speed Precip Events Conditions
12:15 AM 50.0 °F - 48.2 °F 94% 30.24 in 10.0 mi Calm Calm - N/A   Overcast
12:35 AM 50.0 °F - 48.2 °F 94% 30.23 in 10.0 mi Calm Calm - N/A   Overcast
1:15 AM 50.0 °F - 48.2 °F 94% 30.23 in 10.0 mi Calm Calm - N/A   Overcast
1:35 AM 50.0 °F - 48.2 °F 94% 30.21 in 10.0 mi Calm Calm - N/A   Overcast
1:55 AM 50.0 °F - 48.2 °F 94% 30.21 in 10.0 mi NW 8.1 mph - N/A   Overcast
2:15 AM 50.0 °F - 48.2 °F 94% 30.21 in 10.0 mi Calm Calm - N/A   Partly Cloudy
2:35 AM 50.0 °F - 48.2 °F 94% 30.20 in 10.0 mi North 3.5 mph - N/A   Mostly Cloudy
2:55 AM 50.0 °F - 46.4 °F 87% 30.20 in 10.0 mi North 6.9 mph - N/A   Mostly Cloudy
3:15 AM 48.2 °F - 46.4 °F 93% 30.19 in 10.0 mi North 3.5 mph - N/A   Partly Cloudy
3:35 AM 48.2 °F - 46.4 °F 93% 30.19 in 10.0 mi Calm Calm - N/A   Clear
3:55 AM 48.2 °F - 46.4 °F 93% 30.17 in 10.0 mi Calm Calm - N/A   Partly Cloudy
4:15 AM 48.2 °F - 46.4 °F 93% 30.17 in 10.0 mi North 6.9 mph - N/A   Scattered Clouds
4:35 AM 48.2 °F - 46.4 °F 93% 30.15 in 10.0 mi North 8.1 mph - N/A   Mostly Cloudy
4:55 AM 48.2 °F - 46.4 °F 93% 30.16 in 10.0 mi Calm Calm - N/A   Scattered Clouds
5:15 AM 48.2 °F - 46.4 °F 93% 30.18 in 10.0 mi Calm Calm - N/A   Scattered Clouds
5:35 AM 48.2 °F - 46.4 °F 93% 30.19 in 10.0 mi Calm Calm - N/A   Overcast
6:15 AM 48.2 °F - 46.4 °F 93% 30.21 in 10.0 mi Calm Calm - N/A   Overcast
6:35 AM 48.2 °F - 46.4 °F 93% 30.19 in 10.0 mi Calm Calm - N/A   Overcast
6:45 AM 48.2 °F - 46.4 °F 93% 30.18 in 10.0 mi NNE 5.8 mph - N/A   Overcast
7:45 AM 48.2 °F - 46.4 °F 93% 30.21 in 10.0 mi NNW 6.9 mph - N/A   Overcast
8:45 AM 48.2 °F - 46.4 °F 93% 30.20 in 10.0 mi NNW 6.9 mph - N/A   Overcast
9:45 AM 46.4 °F 40.4 °F 46.4 °F 100% 30.18 in 5.0 mi NNW 13.8 mph 23.0 mph N/A Rain Rain
10:55 AM 44.6 °F 38.8 °F 42.8 °F 93% 30.21 in 5.0 mi NNW 11.5 mph 23.0 mph N/A Rain Rain
11:45 AM 44.6 °F 38.4 °F 41.0 °F 87% 30.20 in 10.0 mi NNW 12.7 mph - N/A Rain Rain
12:50 PM 44.6 °F 38.1 °F 42.8 °F 93% 30.18 in 9.0 mi NNW 13.8 mph - N/A Rain Rain
1:45 PM 46.4 °F 40.7 °F 44.6 °F 93% 30.16 in 5.0 mi NNW 12.7 mph - N/A Rain Light Rain
2:45 PM 44.6 °F 41.4 °F 42.8 °F 93% 30.17 in 9.0 mi WNW 5.8 mph - N/A Rain Light Rain
3:55 PM 46.4 °F 41.9 °F 44.6 °F 93% 30.18 in 5.0 mi NW 9.2 mph - N/A Rain Rain
4:45 PM 44.6 °F 42.2 °F 44.6 °F 100% 30.17 in 10.0 mi NW 4.6 mph - N/A   Overcast
5:45 PM 46.4 °F 41.9 °F 41.0 °F 81% 30.17 in 10.0 mi NW 9.2 mph - N/A   Overcast
6:45 PM 46.4 °F 43.5 °F 41.0 °F 81% 30.16 in 10.0 mi NW 5.8 mph - N/A   Overcast
7:45 PM 44.6 °F 41.4 °F 41.0 °F 87% 30.17 in 10.0 mi NW 5.8 mph - N/A   Overcast
8:45 PM 44.6 °F - 41.0 °F 87% 30.18 in 10.0 mi Calm Calm - N/A   Overcast
9:15 PM 44.6 °F - 41.0 °F 87% 30.18 in 10.0 mi Calm Calm - N/A   Overcast
9:35 PM 44.6 °F - 41.0 °F 87% 30.19 in 10.0 mi Calm Calm - N/A   Overcast
9:55 PM 44.6 °F - 41.0 °F 87% 30.19 in 10.0 mi Calm Calm - N/A   Overcast
10:15 PM 44.6 °F - 41.0 °F 87% 30.19 in 10.0 mi Calm Calm - N/A   Overcast
10:35 PM 44.6 °F - 41.0 °F 87% 30.19 in 10.0 mi Calm Calm - N/A   Mostly Cloudy
10:55 PM 42.8 °F - 41.0 °F 93% 30.19 in 10.0 mi Calm Calm - N/A   Scattered Clouds
11:15 PM 41.0 °F - 39.2 °F 93% 30.18 in 10.0 mi Calm Calm - N/A   Scattered Clouds
11:35 PM 41.0 °F - 39.2 °F 93% 30.18 in 10.0 mi Calm Calm - N/A   Scattered Clouds
11:55 PM 41.0 °F - 39.2 °F 93% 30.17 in 10.0 mi Calm Calm - N/A   Clear